Lapse_Rate
4.4 4.3 4.4 4.3 4.5 4.3 4.3 4.1 3.9 3.8 3.5 3.6 3.8 3.6 3.5 3.6 3.3 3.0 2.9 2.9 2.7 2.6
4.7 4.6 4.6 4.5 4.6 4.8 4.9 4.7 4.5 4.3 3.8 3.8 3.8 3.7 3.6 3.5 3.4 3.1 2.9 2.7 2.5 2.3
4.7 4.8 4.9 4.9 4.9 4.9 4.8 4.7 4.6 4.5 4.4 4.1 3.9 3.7 3.5 3.4 3.2 2.9 2.6 2.5 2.4 2.2
4.2 4.6 4.9 5.0 5.0 5.0 4.9 4.9 4.7 4.5 4.3 4.0 3.8 3.7 3.5 3.5 3.4 3.2 2.8 2.6 2.5 2.4
4.2 4.2 4.3 4.6 4.8 4.8 4.8 4.7 4.4 4.3 4.2 3.9 3.8 3.7 3.6 3.6 3.5 3.3 3.0 2.8 2.7 2.6
4.3 4.3 4.3 4.2 4.2 4.2 4.2 4.5 4.3 4.3 4.1 3.7 3.6 3.5 3.5 3.5 3.6 3.5 3.4 3.2 3.1 2.9
3.9 3.9 3.9 4.0 4.0 3.9 3.7 3.8 3.9 3.8 3.6 3.4 3.3 3.5 3.5 3.6 3.6 3.5 3.5 3.4 3.3 3.2
3.9 3.9 3.9 3.8 3.6 3.6 3.6 3.6 3.6 3.7 3.6 3.5 3.6 3.6 3.7 3.6 3.5 3.5 3.5 3.5 3.6 3.6
4.2 4.1 4.1 4.1 4.0 3.9 3.8 4.0 4.0 3.9 3.9 3.8 3.9 4.0 3.8 3.6 3.6 3.5 3.5 3.6 3.7 3.6
4.2 4.2 4.2 4.1 4.2 4.2 4.2 4.2 4.2 4.1 4.1 4.0 4.0 3.9 3.7 3.6 3.5 3.4 3.6 3.6 3.5 3.7
4.4 4.5 4.6 4.7 4.6 4.5 4.5 4.5 4.4 4.3 4.2 4.1 4.1 4.0 4.0 3.9 3.7 3.7 3.6 3.5 3.5 3.4
4.9 5.1 5.1 5.0 5.0 4.9 4.7 4.6 4.4 4.4 4.3 4.3 4.3 4.3 4.2 4.2 4.1 4.1 4.0 3.9 3.8 3.6
5.1 5.2 5.1 5.0 5.0 4.9 4.7 4.6 4.6 4.7 4.7 4.6 4.6 4.5 4.4 4.4 4.4 4.4 4.4 4.2 4.0 3.8
4.8 4.8 4.8 4.9 4.8 4.8 4.8 4.9 4.9 5.0 5.0 4.9 4.8 4.7 4.6 4.5 4.3 4.2 4.1 3.9 3.8 3.6
Wind_Speed
6 3 2 1 1 1 1 1 3 5 5 7 8 8 7 6 6 7 4 4 4 4
6 5 4 4 3 2 2 2 1 4 5 5 6 7 8 7 6 6 6 4 4 4
6 7 5 5 4 4 3 3 3 4 5 5 6 6 7 8 7 6 6 6 6 6
5 6 6 5 6 6 5 5 4 5 5 5 6 7 7 8 9 7 8 8 7 8
4 5 4 5 6 5 5 6 6 6 6 7 6 7 8 7 8 9 9 9 8 9
4 5 5 4 5 6 6 8 8 8 7 8 8 8 9 9 8 9 10 10 9 10
4 5 4 5 5 5 6 8 8 8 8 9 9 10 11 11 10 10 12 15 13 11
3 2 2 4 5 6 7 8 8 7 8 8 9 10 9 11 9 11 12 13 16 16
3 3 3 3 3 5 6 7 7 6 7 6 9 14 17 17 10 13 14 13 13 17
3 3 2 3 4 5 5 5 5 6 6 7 10 16 19 20 15 12 12 13 13 13
4 4 4 4 4 5 6 6 6 6 6 7 10 18 19 20 15 10 11 13 13 14
5 5 5 5 6 6 6 6 6 7 8 8 9 19 20 19 8 10 12 14 17 16
6 6 6 7 7 7 7 7 7 8 8 13 10 19 22 20 8 10 9 11 14 24
7 7 7 7 7 7 7 7 7 9 9 10 15 15 22 22 11 9 10 10 10 10
Wind_Direction
154 158 158 151 32 345 342 31 360 342 345 343 348 349 349 334 350 346 348 342 332 326
180 184 177 167 187 222 244 271 336 308 326 326 334 340 336 320 320 332 319 315 299 312
195 192 192 187 207 223 249 243 270 295 302 315 321 326 324 310 307 305 299 296 297 290
214 207 200 211 213 214 232 239 251 267 281 296 302 304 301 297 297 295 293 288 285 286
227 216 230 232 241 242 249 253 254 260 271 272 274 277 281 287 292 291 290 288 287 288
223 223 235 239 251 258 263 263 265 265 263 271 270 275 277 279 282 284 284 285 285 281
241 239 239 252 252 259 266 273 273 271 273 275 279 282 286 287 283 284 281 281 279 276
279 279 262 253 252 254 257 263 266 271 273 277 277 278 278 281 283 285 284 281 280 278
329 322 284 273 271 269 268 266 266 267 272 274 275 277 283 286 281 281 283 283 283 288
354 322 311 294 286 281 279 286 283 276 274 277 281 286 290 290 288 290 289 287 287 286
343 321 315 303 293 293 291 287 286 285 285 285 284 288 293 293 290 291 292 288 286 283
324 314 309 301 298 296 292 287 283 281 280 275 276 286 289 291 294 283 282 281 279 277
304 297 294 296 296 292 285 280 280 279 274 271 276 280 287 290 279 277 279 278 277 281
297 294 283 280 281 283 281 280 279 279 274 269 266 267 280 283 281 280 279 275 275 275